TimeAST,TemperatureF,Dew PointF,Humidity,Sea Level PressureIn,VisibilityMPH,Wind Direction,Wind SpeedMPH,Gust SpeedMPH,PrecipitationIn,Events,Conditions,WindDirDegrees,DateUTC
12:55 AM,69.1,59.7,72,29.97,6.2,NNW,5.8,-,N/A,,Clear,330,2013-11-07 21:55:00
1:55 AM,68.0,58.6,72,29.97,6.2,Calm,Calm,-,N/A,,Clear,0,2013-11-07 22:55:00
2:55 AM,67.3,59.0,75,29.97,6.2,NNW,3.5,-,N/A,,Clear,330,2013-11-07 23:55:00
3:55 AM,66.2,57.9,75,29.97,6.2,Calm,Calm,-,N/A,,Clear,0,2013-11-08 00:55:00
4:55 AM,65.5,57.4,75,29.99,6.2,NNW,3.5,-,N/A,,Clear,330,2013-11-08 01:55:00
5:55 AM,66.6,58.1,74,30.01,6.2,NNW,4.6,-,N/A,,Clear,340,2013-11-08 02:55:00
6:55 AM,67.6,58.8,73,30.02,6.2,NNW,3.5,-,N/A,,Clear,330,2013-11-08 03:55:00
7:55 AM,74.3,62.4,66,30.04,6.2,NNW,3.5,-,N/A,,Clear,330,2013-11-08 04:55:00
8:55 AM,78.3,62.8,59,30.04,6.2,Calm,Calm,-,N/A,,Clear,0,2013-11-08 05:55:00
9:55 AM,81.9,61.9,51,30.02,6.2,ESE,5.8,-,N/A,,Clear,110,2013-11-08 06:55:00
10:55 AM,83.1,60.4,46,30.00,6.2,Variable,4.6,-,N/A,,Clear,0,2013-11-08 07:55:00
11:55 AM,84.9,59.2,42,29.98,6.2,ESE,4.6,-,N/A,,Clear,110,2013-11-08 08:55:00
12:55 PM,84.9,59.5,42,29.95,6.2,East,6.9,-,N/A,,Clear,100,2013-11-08 09:55:00
1:55 PM,84.9,59.5,42,29.94,6.2,ESE,6.9,-,N/A,,Clear,120,2013-11-08 10:55:00
2:55 PM,84.0,59.0,43,29.94,6.2,ESE,6.9,-,N/A,,Clear,110,2013-11-08 11:55:00
3:55 PM,82.8,58.8,44,29.94,6.2,ENE,11.5,-,N/A,,Clear,70,2013-11-08 12:55:00
4:55 PM,81.0,59.9,49,29.95,6.2,East,9.2,-,N/A,,Clear,100,2013-11-08 13:55:00
5:55 PM,79.5,60.8,53,29.96,6.2,East,8.1,-,N/A,,Clear,100,2013-11-08 14:55:00
6:55 PM,77.7,59.5,53,29.96,6.2,East,4.6,-,N/A,,Clear,90,2013-11-08 15:55:00
7:55 PM,76.3,59.9,57,29.98,6.2,East,5.8,-,N/A,,Clear,90,2013-11-08 16:55:00
8:55 PM,75.2,60.3,60,29.97,6.2,East,4.6,-,N/A,,Clear,90,2013-11-08 17:55:00
9:55 PM,75.6,61.3,61,29.96,6.2,Calm,Calm,-,N/A,,Clear,0,2013-11-08 18:55:00
10:55 PM,75.2,61.5,62,29.96,6.2,Calm,Calm,-,N/A,,Clear,0,2013-11-08 19:55:00
11:55 PM,73.9,61.7,65,29.95,6.2,ENE,4.6,-,N/A,,Clear,60,2013-11-08 20:55:00